星链-2340 (STARLINK-2340 )

导读 | 豆包AI

STARLINK-2340是美国太空探索技术公司(SpaceX)星链(Starlink)卫星星座的一员,该星座旨在提供全球高速互联网接入服务。该卫星于2021年3月14日发射升空,运行近地轨道,为全球偏远地区、海洋空域等场景提供互联网服务。作为Starlink组网卫星,它补充了星链星座规模,提升了星座覆盖密度与服务稳定性。

基本信息
目录编号:
47882
目录名称:
STARLINK-2340
国际标识:
2021-021Y
轨道中心:
EARTH
卫星名称:
星链-2340
卫星全名:
星链-2340 (STARLINK-2340 )
卫星状态:
已陨落 最后检测时间 2025-12-13
发射日期:
2021-03-14 UTC
国别 :
美国 (US)
星等 :
--
轨道信息
数据来源 国际轨道数据
星历时间: 2025-12-13T07:56:41+0800
轨道信息已过期138天
半长轴: 6589.772km
偏心率: 0.0007113
轨道倾角: 53.014°
近地点辐角 237.102°
升交点赤经 196.228°
平近点角 122.934°
近地点: 206.949km
远地点: 216.325km
周期: 88.729分钟
每日圈数: 16.229204
详细信息
固有亮度:
5
最大亮度:
2.5
卫星平台:
Starlink V1.0
覆盖范围:
全球
运营商:
太空探索技术公司
运营商所在国:
美国
制造商(研发单位):
太空探索技术公司
制造商所在国:
美国
使用方式:
暂无
卫星简介
星链(Starlink)计划是由太空探索技术公司(SpaceX)提出的一个巨型低轨卫星互联网星座项目,计划在2019年至2024年间在太空搭建由约1.2万颗卫星组成的“星链”网络,其中1584颗将部署在地球上空550千米处的近地轨道,并从2020年开始工作。该卫星仍在工作。